Weather History for Montpelier, VT

Change the Weather History Date:

Tuesday, July 2, 2013

  Actual Average Record
Temperature  
Mean Temperature 68 °F 66 °F  
Max Temperature 77 °F 78 °F 90 °F (1949)
Min Temperature 59 °F 55 °F 38 °F (1992)
Cooling Degree Days 3 3  
Month to date cooling degree days 3 6  
Year to date cooling degree days 82 69  
Since 1 June cooling degree days 71 59  
Growing Degree Days 18 (Base 50)    
Moisture  
Dew Point 64 °F    
Average Humidity 91    
Maximum Humidity 100    
Minimum Humidity 82    
Precipitation  
Precipitation 0.83 in 0.11 in 2.25 in (1961)
Month to date precipitation 1.26 0.22  
Year to date precipitation 18.88 16.93  
Sea Level Pressure  
Sea Level Pressure 30.16 in    
Wind  
Wind Speed 3 mph (SE)    
Max Wind Speed 10 mph    
Max Gust Speed 24 mph    
Visibility 8 miles    
Events Rain    
T = Trace of Precipitation, MM = Missing Value Source: NWS Daily Summary

Daily Weather History Graph

Daily Weather History Graph

Search for Another Location

Airport:

Trip Planner

Search our weather history database for the weather conditions in past years. The results will help you decide how hot, cold, wet, or windy it might be!

Date:

Astronomy

Jul. 02, 2013 Rise Set
Actual Time 5:11 AM EDT 8:37 PM EDT
Civil Twilight 4:34 AM EDT 9:13 PM EDT
Nautical Twilight 3:47 AM EDT 10:00 PM EDT
Astronomical Twilight 2:47 AM EDT 11:00 PM EDT
Moon 1:18 AM EDT 3:43 PM EDT
Length of Visible Light 16h 38m
Length of Day
15h 26m
Waning Crescent, 26% of the Moon is Illuminated
Jul 2
Waning Crescent
Jul 8
New
Jul 15
First Quarter
Jul 22
Full
Jul 29
Last Quarter

Hourly Weather History & Observations

Time (EDT) Temp. Dew Point Humidity Pressure Visibility Wind Dir Wind Speed Gust Speed Precip Events Conditions
12:22 AM 60.8 °F 59.0 °F 94% 30.13 in 8.0 mi NNW 3.5 mph - 0.00 in Rain Light Rain
12:51 AM 60.1 °F 59.0 °F 96% 30.12 in 10.0 mi Calm Calm - 0.00 in   Overcast
1:51 AM 59.0 °F 59.0 °F 100% 30.12 in 4.0 mi WNW 3.5 mph - 0.03 in Rain Light Rain
2:06 AM 59.0 °F 59.0 °F 100% 30.13 in 2.5 mi West 3.5 mph - 0.06 in Rain Rain
2:20 AM 59.0 °F 59.0 °F 100% 30.13 in 1.2 mi Calm Calm - 0.21 in Rain Heavy Rain
2:23 AM 59.0 °F 59.0 °F 100% 30.13 in 1.5 mi Calm Calm - 0.25 in Rain Heavy Rain
2:37 AM 59.0 °F 59.0 °F 100% 30.13 in 2.0 mi Calm Calm - 0.35 in Rain Heavy Rain
2:44 AM 59.0 °F 59.0 °F 100% 30.13 in 2.5 mi Calm Calm - 0.39 in Rain Heavy Rain
2:51 AM 59.0 °F 59.0 °F 100% 30.13 in 4.0 mi Calm Calm - 0.39 in Rain Light Rain
3:18 AM 60.8 °F 59.0 °F 94% 30.12 in 9.0 mi Calm Calm - 0.05 in Rain Light Rain
3:28 AM 60.8 °F 59.0 °F 94% 30.13 in 9.0 mi Calm Calm - 0.05 in Rain Light Rain
3:51 AM 60.1 °F 59.0 °F 96% 30.13 in 10.0 mi Calm Calm - 0.05 in   Overcast
4:23 AM 60.8 °F 59.0 °F 94% 30.14 in 10.0 mi Calm Calm - N/A   Overcast
4:38 AM 60.8 °F 59.0 °F 94% 30.14 in 10.0 mi Calm Calm - N/A   Overcast
4:51 AM 60.1 °F 59.0 °F 96% 30.14 in 10.0 mi Calm Calm - 0.01 in   Overcast
5:13 AM 60.8 °F 60.8 °F 100% 30.15 in 8.0 mi Calm Calm - 0.00 in Rain Light Rain
5:31 AM 60.8 °F 60.8 °F 100% 30.15 in 10.0 mi Calm Calm - 0.00 in   Overcast
5:51 AM 61.0 °F 60.1 °F 97% 30.15 in 10.0 mi Calm Calm - 0.00 in   Overcast
6:34 AM 60.8 °F 60.8 °F 100% 30.16 in 5.0 mi Calm Calm - 0.01 in Rain Light Rain
6:51 AM 61.0 °F 60.1 °F 97% 30.17 in 2.5 mi Calm Calm - 0.05 in Rain Heavy Rain
7:24 AM 60.8 °F 60.8 °F 100% 30.18 in 1.2 mi Calm Calm - 0.14 in Rain Heavy Rain
7:31 AM 60.8 °F 60.8 °F 100% 30.18 in 1.2 mi Calm Calm - 0.18 in Rain Heavy Rain
7:35 AM 60.8 °F 60.8 °F 100% 30.18 in 2.0 mi Calm Calm - 0.19 in Rain Rain
7:43 AM 60.8 °F 60.8 °F 100% 30.17 in 3.0 mi ENE 3.5 mph - 0.21 in Rain Rain
7:51 AM 61.0 °F 60.1 °F 97% 30.17 in 6.0 mi Calm Calm - 0.21 in Rain Light Rain
8:51 AM 62.1 °F 61.0 °F 96% 30.18 in 10.0 mi Calm Calm - 0.01 in   Overcast
9:07 AM 62.6 °F 60.8 °F 94% 30.18 in 1.8 mi Calm Calm - 0.02 in Rain Light Rain
9:17 AM 62.6 °F 60.8 °F 94% 30.18 in 3.0 mi Calm Calm - 0.02 in Rain Light Rain
9:26 AM 62.6 °F 60.8 °F 94% 30.18 in 2.0 mi Calm Calm - 0.02 in Rain Light Rain
9:30 AM 62.6 °F 60.8 °F 94% 30.18 in 1.8 mi Calm Calm - 0.03 in Rain Light Rain
10:35 AM 64.4 °F 62.6 °F 94% 30.18 in 10.0 mi ENE 3.5 mph - N/A   Overcast
10:51 AM 64.0 °F 63.0 °F 96% 30.18 in 10.0 mi East 3.5 mph - N/A   Overcast
11:48 AM 69.8 °F 66.2 °F 88% 30.17 in 10.0 mi NE 3.5 mph - N/A   Overcast
11:51 AM 69.1 °F 66.0 °F 90% 30.17 in 10.0 mi Variable 3.5 mph - N/A   Overcast
12:09 PM 71.6 °F 66.2 °F 83% 30.18 in 10.0 mi WNW 4.6 mph - N/A   Overcast
12:20 PM 71.6 °F 66.2 °F 83% 30.17 in 10.0 mi Calm Calm - N/A   Overcast
12:51 PM 71.1 °F 68.0 °F 90% 30.17 in 10.0 mi Calm Calm - N/A   Overcast
1:51 PM 75.0 °F 69.1 °F 82% 30.16 in 10.0 mi NE 3.5 mph - N/A   Overcast
2:51 PM 75.9 °F 70.0 °F 82% 30.14 in 10.0 mi North 3.5 mph - 0.00 in   Overcast
3:05 PM 75.2 °F 71.6 °F 89% 30.15 in 10.0 mi Calm Calm - 0.00 in Rain Light Rain
3:14 PM 75.2 °F 71.6 °F 89% 30.15 in 2.5 mi Calm Calm - 0.03 in Rain Rain
3:27 PM 75.2 °F 71.6 °F 89% 30.15 in 8.0 mi NW 3.5 mph - 0.03 in Rain Light Rain
3:49 PM 73.4 °F 71.6 °F 94% 30.15 in 10.0 mi NW 5.8 mph - 0.03 in   Overcast
3:51 PM 73.0 °F 71.1 °F 93% 30.14 in 10.0 mi NNW 4.6 mph - 0.03 in   Overcast
4:00 PM 77.0 °F 73.4 °F 89% 30.14 in 10.0 mi Variable 6.9 mph - N/A   Overcast
4:03 PM 75.2 °F 71.6 °F 89% 30.15 in 10.0 mi ENE 9.2 mph - N/A   Overcast
4:23 PM 75.2 °F 69.8 °F 83% 30.15 in 10.0 mi SE 8.1 mph - N/A   Overcast
4:28 PM 73.4 °F 69.8 °F 88% 30.15 in 10.0 mi SE 8.1 mph - N/A   Overcast
4:35 PM 73.4 °F 69.8 °F 88% 30.15 in 10.0 mi ESE 8.1 mph - N/A   Overcast
4:51 PM 73.9 °F 69.1 °F 85% 30.14 in 10.0 mi East 9.2 mph - N/A   Overcast
5:41 PM 73.4 °F 69.8 °F 88% 30.15 in 10.0 mi East 4.6 mph - N/A   Mostly Cloudy
5:51 PM 73.0 °F 69.1 °F 87% 30.14 in 10.0 mi ESE 6.9 mph - N/A   Overcast
6:42 PM 71.6 °F 68.0 °F 88% 30.16 in 10.0 mi SE 3.5 mph - N/A   Mostly Cloudy
6:51 PM 72.0 °F 68.0 °F 87% 30.15 in 10.0 mi SSE 6.9 mph - N/A   Mostly Cloudy
6:59 PM 71.6 °F 68.0 °F 88% 30.17 in 10.0 mi South 5.8 mph - N/A   Mostly Cloudy
7:51 PM 70.0 °F 66.9 °F 90% 30.17 in 10.0 mi SSE 4.6 mph - N/A   Scattered Clouds
8:36 PM 69.8 °F 66.2 °F 88% 30.19 in 10.0 mi SSE 4.6 mph - 0.02 in Rain Light Rain
8:51 PM 68.0 °F 66.9 °F 96% 30.19 in 10.0 mi SSE 3.5 mph - 0.02 in   Overcast
9:13 PM 66.2 °F 66.2 °F 100% 30.19 in 10.0 mi South 4.6 mph - N/A   Scattered Clouds
9:51 PM 66.9 °F 64.9 °F 93% 30.20 in 10.0 mi SSW 5.8 mph - N/A   Scattered Clouds
10:15 PM 66.2 °F 64.4 °F 94% 30.20 in 10.0 mi South 4.6 mph - N/A   Mostly Cloudy
10:22 PM 66.2 °F 64.4 °F 94% 30.20 in 10.0 mi SSW 3.5 mph - N/A   Mostly Cloudy
10:51 PM 66.9 °F 64.0 °F 90% 30.19 in 10.0 mi South 6.9 mph - N/A   Overcast
11:51 PM 66.0 °F 64.9 °F 96% 30.19 in 10.0 mi SSE 6.9 mph - N/A   Overcast